Location: Bermeries
(50.2863°N, 3.7551°E)
Time: 10:24:38
(UTC+00:00)

CZ-2C R/B - Pass Details

Date: 23 May 2024
Orbit: 783 x 868 km, 98.3° (Epoch: 14 June)

Event Time Altitude Azimuth Distance (km) Brightness Sun altitude
Exits shadow 00:47:46 - 134° (SE) 2,817 5.2 -17.6°
Reaches altitude 10° 00:49:03 10° 129° (SE) 2,340 4.8 -17.5°
Maximum altitude 00:53:43 36° 64° (ENE) 1,232 3.9 -17.3°
Drops below altitude 10° 00:58:25 10° 359° (N) 2,364 6.2 -17.1°
Sets 01:00:54 0° 352° (N) 3,306 6.9 -16.9°
